Find GFO

NORAD ID: 25157 Int'l Des: 1998-007 Owner: USN Country: US operational
LEOCIRCULARRETROGRADE

当前视图

正在加载3D地球...

About GFO

GFO (NORAD 25157) is a satellite launched Feb 10, 1998 by USN of US. It operates in LEO, CIRCULAR, RETROGRADE orbit with a mass of 365.00 kg.

即将过境

Passes for default location (London). Set your location on the main map for personalized predictions.

高度历史

Loading altitude history...

两行轨道根数

1 25157U 98007A 26195.04695043 .00284492 42936-4 54941-3 0 9991
2 25157 107.9942 232.6242 0021770 257.9078 101.9708 15.99880085530782
Epoch: Jul 14, 2026 • Age: 14 hours

当前状态

高度 294.4 km
远地点 / 近地点 N/A
速度 7.73 km/s
星下点 58.64°N, 73.08°W
发射日期 Feb 10, 1998
运行时间 28.4 years
类型 other

技术详情

分类 Payload
质量 365.00 kg
干质量 300.00 kg
总质量 365.00 kg
长度 2.70 m
直径 1.00 m
跨度 2.70 m
形状 Cyl + Dish + Pan
制造商 BALL
平台类型 BCP-2000/Tchstar
阶段状态 In Orbit
所有者/国家 USN/US

Most Searched